This is the latest recevied weather packets stored in our database for station/object KQ4OSL. If no packets are shown the sender has not sent any weather packets the latest 10 day(s).
| Time | Temp. | Humidity | Pressure | Rain* | Wind** | Luminosity | Snow |
|---|---|---|---|---|---|---|---|
| 1778020548 | 23.33° C | 55% | 1015.4 hPa | 0 mm | - | 67 W/m² | - |
| 1778020244 | 23.33° C | 53% | 1015.3 hPa | 0 mm | - | 83 W/m² | - |
| 1778019940 | 23.89° C | 54% | 1015.2 hPa | 0 mm | - | 37 W/m² | - |
| 1778019637 | 23.89° C | 53% | 1015.1 hPa | 0 mm | - | 48 W/m² | - |
| 1778019334 | 23.89° C | 53% | 1015.1 hPa | 0 mm | - | 66 W/m² | - |
| 1778019030 | 23.89° C | 52% | 1015.1 hPa | 0 mm | - | 53 W/m² | - |
| 1778018728 | 23.89° C | 52% | 1015 hPa | 0 mm | - | 136 W/m² | - |
| 1778018425 | 23.89° C | 51% | 1015 hPa | 0 mm | - | 120 W/m² | - |
| 1778018124 | 23.89° C | 50% | 1015.1 hPa | 0 mm | - | 49 W/m² | - |
| 1778017821 | 23.33° C | 50% | 1015 hPa | 0 mm | - | 147 W/m² | - |
| 1778017519 | 23.89° C | 51% | 1015.2 hPa | 0 mm | - | 129 W/m² | - |
| 1778017215 | 23.89° C | 50% | 1015.2 hPa | 0 mm | - | 75 W/m² | - |
| 1778016913 | 23.89° C | 49% | 1015.2 hPa | 0 mm | - | 75 W/m² | - |
| 1778016609 | 24.44° C | 49% | 1014.9 hPa | 0 mm | - | 151 W/m² | - |
| 1778016306 | 23.89° C | 49% | 1015.3 hPa | 0 mm | - | 336 W/m² | - |
| 1778016003 | 23.89° C | 48% | 1015.2 hPa | 0 mm | - | 293 W/m² | - |
| 1778015700 | 24.44° C | 47% | 1015.1 hPa | 0 mm | - | 324 W/m² | - |
| 1778015396 | 24.44° C | 48% | 1015.1 hPa | 0 mm | - | 361 W/m² | - |
| 1778015093 | 24.44° C | 47% | 1015.1 hPa | 0 mm | - | 364 W/m² | - |
| 1778014790 | 24.44° C | 47% | 1015.1 hPa | 0 mm | - | 394 W/m² | - |
| 1778014489 | 24.44° C | 46% | 1015.4 hPa | 0 mm | - | 403 W/m² | - |
| 1778014185 | 25° C | 47% | 1015.3 hPa | 0 mm | - | 398 W/m² | - |
| 1778013883 | 24.44° C | 47% | 1015.5 hPa | 0 mm | - | 422 W/m² | - |
| 1778013580 | 24.44° C | 46% | 1015.4 hPa | 0 mm | - | 435 W/m² | - |
| 1778013276 | 24.44° C | 45% | 1015.4 hPa | 0 mm | - | 451 W/m² | - |
* Rain latest hour (hover to see other rain measurements)
** Current wind speed in m/s (hover to see current wind gust speed)